Location: ČR
(50.0000°N, 15.0000°E)
Time: 02:55:42
(UTC+00:00)

Courier 1B Rocket - Pass Details

Date: 02 November 2021
Orbit: 920 x 1202 km, 28.3° (Epoch: 27 November)

Event Time Altitude Azimuth Distance (km) Brightness Sun altitude
Rises 11:07:45 0° 218° (SW) 4,013 9.1 24.9°
Reaches altitude 10° 11:13:43 10° 182° (S) 2,979 9.5 24.8°
Maximum altitude 11:15:02 11° 172° (S) 2,922 9.1 24.7°
Drops below altitude 10° 11:16:20 10° 161° (SSE) 2,943 8.7 24.7°
Sets 11:22:01 0° 125° (SE) 3,812 8.4 24.6°
